sat.trackr.live / text

‹ back to catalog

STARLINK-31088

NORAD 58604 · 2023-200R

PAYLOAD ACTIVE UNKNOWN

§ Identity

Operator
Country
US
Launch date
2023-12-19
Launch site
AFETR
Launch vehicle
Mass (kg)
RCS (m²)

Purposes: comms

External: N2YO · Heavens-Above · Gunter

§ Orbital elements

Epoch: 2026-09-19T01:05:04.479936Z

Period
94.27 min
Inclination
43.0040°
Eccentricity
0.0001793
Mean motion
15.27570523 rev/d
Perigee alt
481.8 km
Apogee alt
484.3 km
Semi-major
6,861.2 km
B*
5.8771e-5
RAAN
156.7285°
Arg perigee
256.9662°
Mean anomaly
103.0989°
Rev number
15,318

§ Raw data

STARLINK-310881 58604U 23200R   26262.04519074  .00001355  00000+0  58771-4 0  99932 58604  43.0040 156.7285 0001793 256.9662 103.0989 15.27570523153181

JSON: /api/v1/satellites/58604 · /tle

For live sub-satellite position, see the globe view (requires WebGL).

§ Visibility from observer

Set your observer location to see the next 7 days of passes ≥ 10°. The values pass through the URL so the page stays shareable.

No JS? Fill the form by hand. The geolocation button needs JavaScript.